CZ-3B DEB, 40160

Orbit data source: Space-Track

CZ-3B DEB, 40160 is space debris in HEO originally from a launch on Sat, 04 Sep 2010 UTC launched from the Xichang Space Center, China (XSC). Debris objects in space refer to the collection of defunct objects orbiting the Earth. Examples of debris include non-operational satellites, rocket bodies, and fragments generated from explosions, collisions, or faulty payload assembly.

Loading next visibility...
Identifier
40160, 2010-042M
Orbit
HEO
Country
Flag of CNCN / PRC
Related business
Manufacturer
CALT
Mission
Spacecraft
Bus & Motor
Unknown
Mass
Unknown
Launch date (UTC)
2010-09-04 (15 years ago)
Launch vehicle
Unknown
Launch site
Xichang Space Center, China (XSC)
Object type
Payload
Rocket body
Debris
Shape & HBR
Unknown shape, 0.3 m
Radar Cross Section
Medium (>0.1 m² and <1 m²)

Expand to show TLE details & history
Last TLE update: 6 days ago

TLE from 6 days ago
0 CZ-3B DEB
1 40160U 10042M   25281.51746455 -.00000215  00000-0  00000-0 0  9992
2 40160  27.3521 316.6460 7266827 250.2633  21.4316  1.89923295 82430
Epoch: 2025-10-08T12:25Z
TLE epoch observation values (Epoch: 2025-10-08T12:25:08.937Z)
Latitude
-1.40933°
Longitude
110.2359°
Altitude
10,012 km
Speed
5.845 km/s
True Right ascension
20h 55m 39s
True Declination
-1° 24' 20"
Sunlit
Object was in daylight at epoch
Visualization orbit readout
Latitude
Unknown
Longitude
Unknown
Altitude
Unknown
Speed
Unknown
Apparent Right ascension
Unknown
Apparent Declination
Unknown
Sunlit
N/A
Visualization observer readout
Local Sidereal Time
09:57:36
Azimuth
Unknown
Elevation
Unknown
Doppler factor
Unknown
Orbital elements
Apogee altitude
41,186.293 km
Perigee altitude
1,150.856 km
Semi-major axis
27,546.711 km
Eccentricity
0.72668
Inclination
27.3521°
RAAN
316.646°
Arg. of periapsis
250.2633°
True anomaly
106.28886°
Mean anomaly
21.4316°
Eccentric anomaly
55.91451°
Mean motion
0.47472 °/min
Orbital period
758.34 mins
BSTAR
0
Loading maneuver chart data...
Computing Atmospheric mass density...
Loading historical data...
Loading historical data...
Loading historical data...
Loading historical data...
Loading historical data...
Loading historical data...
Loading historical data...

Documentation

Showing up to 5 results
|